FW8688 Weather Reports


Display with metric or nautical units.
time (UTC)temp
F
wind
direction
speed
MPH
gust
MPH
rain 1hr
in
rain 24hr
in
rain mn
in
humidity
%
barometer
mb
20260508041306 65 345 1.0 1.0 0.00 0.00 0.00 41 1010.8
20260508040805 65 345 0.0 0.0 0.00 0.00 0.00 39 1010.8
20260508035805 65 345 0.0 1.0 0.00 0.00 0.00 40 1010.6
20260508035306 66 345 0.0 1.0 0.00 0.00 0.00 38 1010.6
20260508034805 66 345 1.0 2.0 0.00 0.00 0.00 37 1010.5
20260508034305 66 345 0.0 1.0 0.00 0.00 0.00 37 1010.5
20260508033805 67 345 1.0 2.0 0.00 0.00 0.00 36 1010.3
20260508033305 67 345 1.0 2.0 0.00 0.00 0.00 36 1010.4
20260508032805 67 345 0.0 1.0 0.00 0.00 0.00 36 1010.4
20260508032306 67 345 1.0 2.0 0.00 0.00 0.00 36 1010.4
20260508031806 68 345 1.0 1.0 0.00 0.00 0.00 36 1010.4
20260508031305 69 345 0.0 0.0 0.00 0.00 0.00 35 1010.2
20260508030805 69 345 0.0 2.0 0.00 0.00 0.00 34 1010.2
20260508030305 70 345 1.0 2.0 0.00 0.00 0.00 34 1010.2
20260508025806 70 345 0.0 1.0 0.00 0.00 0.00 33 1010.1
20260508024805 71 192 0.0 0.0 0.00 0.00 0.00 33 1010.2
20260508024306 71 192 0.0 0.0 0.00 0.00 0.00 31 1010.0
20260508022805 71 192 1.0 2.0 0.00 0.00 0.00 30 1010.0
20260508021805 72 231 1.0 3.0 0.00 0.00 0.00 28 1010.0
20260508021305 74 188 2.0 3.0 0.00 0.00 0.00 28 1010.0
20260508020805 74 155 0.0 0.0 0.00 0.00 0.00 27 1010.0
20260508020305 75 155 1.0 2.0 0.00 0.00 0.00 27 1010.0
20260508015805 75 155 1.0 3.0 0.00 0.00 0.00 27 1010.1
20260508015306 75 323 0.0 0.0 0.00 0.00 0.00 26 1009.8
20260508014805 76 323 0.0 1.0 0.00 0.00 0.00 23 1009.7
20260508013805 75 323 1.0 3.0 0.00 0.00 0.00 23 1009.7
20260508013305 75 302 2.0 3.0 0.00 0.00 0.00 23 1009.7
20260508011306 75 313 0.0 2.0 0.00 0.00 0.00 24 1010.0
20260508010805 75 313 2.0 3.0 0.00 0.00 0.00 24 1010.0
20260508010305 75 291 2.0 3.0 0.00 0.00 0.00 24 1010.0
20260508005805 75 260 1.0 2.0 0.00 0.00 0.00 24 1010.0
20260508004305 75 256 2.0 3.0 0.00 0.00 0.00 23 1010.0
20260508003806 75 278 1.0 2.0 0.00 0.00 0.00 23 1010.3
20260508003305 75 355 1.0 3.0 0.00 0.00 0.00 22 1010.3
20260508002307 75 358 5.0 7.0 0.00 0.00 0.00 23 1010.3
20260508001805 76 334 3.0 5.0 0.00 0.00 0.00 23 1010.6
20260508001305 76 355 2.0 3.0 0.00 0.00 0.00 23 1010.6
20260508000805 75 67 2.0 3.0 0.00 0.00 0.00 23 1010.6
20260508000305 76 10 5.0 9.0 0.00 0.00 0.00 22 1010.6
20260507235307 76 81 4.0 7.0 0.00 0.00 0.00 22 1010.5
20260507234806 76 10 3.0 7.0 0.00 0.00 0.00 22 1010.5
20260507233805 76 15 5.0 12.0 0.00 0.00 0.00 23 1010.6
20260507232307 76 6 5.0 12.0 0.00 0.00 0.00 22 1010.8
20260507231805 76 356 3.0 9.0 0.00 0.00 0.00 23 1010.8
20260507231305 76 34 7.0 12.0 0.00 0.00 0.00 22 1010.9
20260507230805 76 353 7.0 12.0 0.00 0.00 0.00 22 1010.8
20260507230305 76 329 7.0 12.0 0.00 0.00 0.00 22 1010.9
20260507225805 76 57 1.0 7.0 0.00 0.00 0.00 22 1010.9
20260507225306 77 20 7.0 9.0 0.00 0.00 0.00 21 1011.1
20260507224805 77 347 3.0 5.0 0.00 0.00 0.00 21 1011.1
20260507223805 77 300 3.0 7.0 0.00 0.00 0.00 22 1011.3
20260507223305 76 304 3.0 10.0 0.00 0.00 0.00 22 1011.4
20260507222306 76 280 4.0 7.0 0.00 0.00 0.00 22 1011.4
20260507221805 76 169 5.0 9.0 0.00 0.00 0.00 21 1011.5
20260507221305 78 178 3.0 6.0 0.00 0.00 0.00 21 1011.8
20260507220306 77 272 5.0 10.0 0.00 0.00 0.00 21 1011.9
20260507215805 77 313 7.0 12.0 0.00 0.00 0.00 21 1011.9
20260507215307 78 261 5.0 8.0 0.00 0.00 0.00 20 1011.7
20260507214805 77 341 1.0 6.0 0.00 0.00 0.00 20 1011.7
20260507214305 77 329 3.0 6.0 0.00 0.00 0.00 21 1011.8
20260507213805 76 46 2.0 5.0 0.00 0.00 0.00 22 1011.9
20260507213305 76 21 3.0 5.0 0.00 0.00 0.00 22 1012.2
20260507212805 76 112 2.0 6.0 0.00 0.00 0.00 21 1012.2
20260507212307 75 145 3.0 5.0 0.00 0.00 0.00 23 1012.2
20260507211305 74 180 7.0 10.0 0.00 0.00 0.00 23 1012.5
20260507210805 75 196 5.0 9.0 0.00 0.00 0.00 22 1012.6
20260507210305 75 170 4.0 6.0 0.00 0.00 0.00 22 1012.6
20260507205805 75 144 5.0 8.0 0.00 0.00 0.00 22 1012.7
20260507204805 74 156 4.0 10.0 0.00 0.00 0.00 23 1012.9
20260507204305 74 167 6.0 9.0 0.00 0.00 0.00 22 1012.9
20260507203805 75 134 4.0 9.0 0.00 0.00 0.00 23 1013.0
20260507202805 74 160 6.0 10.0 0.00 0.00 0.00 24 1013.2
20260507202307 73 158 6.0 9.0 0.00 0.00 0.00 23 1013.3
20260507201805 73 110 6.0 8.0 0.00 0.00 0.00 23 1013.4
20260507201305 73 169 6.0 10.0 0.00 0.00 0.00 23 1013.6
20260507200805 73 125 6.0 10.0 0.00 0.00 0.00 24 1013.6
20260507200305 73 168 5.0 10.0 0.00 0.00 0.00 24 1013.4
20260507195804 71 183 3.0 7.0 0.00 0.00 0.00 24 1013.4
20260507195306 71 132 6.0 10.0 0.00 0.00 0.00 23 1013.4
20260507194805 71 142 5.0 8.0 0.00 0.00 0.00 23 1013.6
20260507194305 71 138 5.0 9.0 0.00 0.00 0.00 23 1013.7
20260507193805 71 122 5.0 8.0 0.00 0.00 0.00 23 1013.8
20260507193305 71 158 6.0 10.0 0.00 0.00 0.00 23 1013.9
20260507192805 70 140 5.0 9.0 0.00 0.00 0.00 24 1013.9
20260507192306 70 125 5.0 9.0 0.00 0.00 0.00 25 1014.1
20260507191805 70 160 5.0 12.0 0.00 0.00 0.00 24 1014.1
20260507191305 69 118 6.0 12.0 0.00 0.00 0.00 24 1014.4
20260507190805 69 127 6.0 9.0 0.00 0.00 0.00 23 1014.4
20260507185805 70 129 6.0 10.0 0.00 0.00 0.00 24 1014.4
20260507185306 70 142 4.0 12.0 0.00 0.00 0.00 25 1014.4
20260507184805 69 162 5.0 9.0 0.00 0.00 0.00 24 1014.6
20260507183804 68 121 6.0 12.0 0.00 0.00 0.00 24 1014.6
20260507183305 68 153 6.0 9.0 0.00 0.00 0.00 25 1014.8
20260507182805 68 130 6.0 9.0 0.00 0.00 0.00 25 1014.8
20260507182307 67 157 3.0 7.0 0.00 0.00 0.00 27 1014.8
20260507181805 66 100 4.0 7.0 0.00 0.00 0.00 27 1014.8
20260507181305 66 163 3.0 7.0 0.00 0.00 0.00 29 1015.0
20260507180805 66 180 5.0 7.0 0.00 0.00 0.00 28 1015.0
20260507180304 65 166 3.0 6.0 0.00 0.00 0.00 29 1015.1
20260507175805 65 181 2.0 6.0 0.00 0.00 0.00 31 1015.3
20260507175307 65 188 2.0 7.0 0.00 0.00 0.00 32 1015.6
20260507174805 64 189 5.0 7.0 0.00 0.00 0.00 32 1015.6
20260507173805 64 192 4.0 6.0 0.00 0.00 0.00 34 1015.6
20260507173305 64 168 5.0 8.0 0.00 0.00 0.00 33 1015.6
20260507172307 64 158 4.0 6.0 0.00 0.00 0.00 36 1015.8
20260507171805 63 210 2.0 6.0 0.00 0.00 0.00 36 1015.8
20260507171305 62 202 3.0 5.0 0.00 0.00 0.00 36 1015.9
20260507170805 62 168 2.0 3.0 0.00 0.00 0.00 39 1015.9
20260507170305 61 165 1.0 5.0 0.00 0.00 0.00 38 1015.8
20260507165306 60 184 3.0 3.0 0.00 0.00 0.00 39 1015.8
20260507164804 59 174 3.0 6.0 0.00 0.00 0.00 39 1016.0
20260507164305 59 178 2.0 5.0 0.00 0.00 0.00 38 1016.0
20260507163806 59 148 3.0 5.0 0.00 0.00 0.00 39 1016.3
20260507163305 59 162 3.0 7.0 0.00 0.00 0.00 38 1016.3
20260507162805 58 179 3.0 7.0 0.00 0.00 0.00 40 1016.3
20260507162307 58 180 4.0 8.0 0.00 0.00 0.00 40 1016.3
20260507161805 58 167 3.0 6.0 0.00 0.00 0.00 42 1016.3
20260507161306 57 161 3.0 6.0 0.00 0.00 0.00 43 1016.3
20260507160305 57 153 4.0 9.0 0.00 0.00 0.00 43 1016.4
20260507155805 56 143 2.0 7.0 0.00 0.00 0.00 43 1016.4
20260507155306 56 133 7.0 12.0 0.00 0.00 0.00 41 1016.5
20260507154805 56 140 6.0 10.0 0.00 0.00 0.00 43 1016.5
20260507154305 56 134 5.0 8.0 0.00 0.00 0.00 47 1016.5
20260507153805 56 140 5.0 9.0 0.00 0.00 0.00 51 1016.7
20260507152805 55 145 3.0 9.0 0.00 0.00 0.00 52 1016.7
20260507152306 55 135 5.0 10.0 0.00 0.00 0.00 51 1016.8
20260507151804 55 172 5.0 8.0 0.00 0.01 0.00 50 1016.9
20260507151305 54 171 3.0 8.0 0.00 0.01 0.00 49 1016.8
20260507150805 54 164 4.0 8.0 0.00 0.01 0.00 48 1016.8
20260507150305 54 157 5.0 8.0 0.00 0.01 0.00 48 1016.8
20260507145805 54 140 6.0 10.0 0.00 0.01 0.00 47 1016.8
20260507144805 53 162 6.0 9.0 0.00 0.01 0.00 51 1016.9
20260507144304 54 160 5.0 9.0 0.00 0.01 0.00 54 1017.0
20260507143305 54 161 5.0 8.0 0.00 0.01 0.00 55 1017.0
20260507142805 53 149 5.0 12.0 0.00 0.01 0.00 53 1017.0
20260507142307 53 142 3.0 7.0 0.00 0.01 0.00 52 1017.0
20260507141805 53 145 4.0 7.0 0.00 0.01 0.00 51 1017.0
20260507141305 52 131 5.0 9.0 0.00 0.01 0.00 50 1017.0
20260507140305 51 114 2.0 8.0 0.00 0.01 0.00 51 1017.1
20260507134805 49 119 1.0 3.0 0.00 0.01 0.00 55 1016.7
20260507134305 49 147 2.0 3.0 0.00 0.01 0.00 57 1016.7
20260507133805 48 163 2.0 5.0 0.00 0.01 0.00 58 1016.8
20260507131805 46 178 0.0 1.0 0.00 0.01 0.00 62 1016.7
20260507131305 46 178 1.0 2.0 0.00 0.01 0.00 62 1016.6
20260507130805 46 178 1.0 2.0 0.00 0.01 0.00 63 1016.6
20260507130304 46 178 1.0 2.0 0.00 0.01 0.00 63 1016.6
20260507125804 46 178 0.0 0.0 0.00 0.01 0.00 63 1016.3
20260507125306 46 178 0.0 2.0 0.00 0.01 0.00 63 1016.3
20260507124805 46 178 1.0 2.0 0.00 0.01 0.00 62 1016.3
20260507123805 46 107 0.0 0.0 0.00 0.01 0.00 62 1016.3
20260507123305 46 107 0.0 0.0 0.00 0.01 0.00 61 1016.3
20260507122805 46 107 1.0 6.0 0.00 0.01 0.00 61 1016.3
20260507122307 46 99 3.0 6.0 0.00 0.01 0.00 62 1016.2
20260507121805 45 99 4.0 7.0 0.00 0.01 0.00 62 1016.2
20260507121305 45 103 4.0 6.0 0.00 0.01 0.00 62 1016.1
20260507120305 45 91 2.0 3.0 0.00 0.01 0.00 63 1016.1
20260507115805 45 144 0.0 1.0 0.00 0.01 0.00 63 1016.2
20260507115307 45 150 0.0 0.0 0.00 0.01 0.00 64 1016.3
20260507114805 45 150 0.0 0.0 0.00 0.01 0.00 64 1016.3
20260507114305 45 150 0.0 0.0 0.00 0.01 0.00 64 1016.2
20260507113805 45 150 0.0 0.0 0.00 0.01 0.00 63 1016.2
20260507112805 45 150 0.0 2.0 0.00 0.01 0.00 62 1016.2
20260507112307 45 132 1.0 3.0 0.00 0.01 0.00 62 1016.2
20260507111805 45 102 0.0 0.0 0.00 0.01 0.00 62 1016.2
20260507111305 45 102 0.0 1.0 0.00 0.01 0.00 62 1016.3
20260507110804 45 102 0.0 2.0 0.00 0.01 0.00 61 1016.0
20260507110305 45 102 2.0 3.0 0.00 0.01 0.00 61 1016.3
20260507105805 45 110 0.0 3.0 0.00 0.01 0.00 61 1016.3
20260507105307 45 110 1.0 2.0 0.00 0.01 0.00 61 1016.3
20260507104804 45 110 1.0 2.0 0.00 0.01 0.00 62 1016.3
20260507104305 45 110 0.0 2.0 0.00 0.01 0.00 62 1016.3
20260507103805 45 110 2.0 3.0 0.00 0.01 0.00 62 1016.5
20260507103304 45 132 0.0 0.0 0.00 0.01 0.00 62 1016.5
20260507102805 45 132 0.0 0.0 0.00 0.01 0.00 61 1016.5
20260507102307 45 132 0.0 0.0 0.00 0.01 0.00 61 1016.5
20260507101804 45 132 0.0 0.0 0.00 0.01 0.00 61 1016.5
20260507101304 45 132 0.0 0.0 0.00 0.01 0.00 60 1016.6
20260507100805 45 132 1.0 2.0 0.00 0.01 0.00 60 1016.6
20260507095805 45 98 2.0 3.0 0.00 0.01 0.00 60 1017.0
20260507095306 45 128 2.0 3.0 0.00 0.01 0.00 60 1017.0
20260507094305 45 128 0.0 0.0 0.00 0.01 0.00 60 1017.0
20260507093805 45 128 0.0 0.0 0.00 0.01 0.00 60 1017.0
20260507092307 45 128 0.0 0.0 0.00 0.04 0.00 59 1017.0
20260507084305 46 168 0.0 0.0 0.00 0.09 0.00 56 1017.0
20260507082805 47 168 1.0 2.0 0.00 0.09 0.00 56 1017.0
20260507082306 47 168 1.0 2.0 0.00 0.09 0.00 56 1017.0
20260507081805 47 168 0.0 0.0 0.00 0.09 0.00 56 1017.0
20260507081305 47 168 0.0 0.0 0.00 0.09 0.00 55 1017.0
20260507080805 47 168 0.0 0.0 0.00 0.09 0.00 54 1017.0
20260507080305 47 168 0.0 0.0 0.00 0.09 0.00 54 1017.0
20260507075805 48 168 0.0 0.0 0.00 0.09 0.00 53 1017.0
20260507074805 48 168 0.0 2.0 0.00 0.09 0.00 53 1017.3
20260507074305 48 168 1.0 2.0 0.00 0.09 0.00 53 1017.4
20260507073804 48 168 0.0 2.0 0.00 0.09 0.00 52 1017.4
20260507073305 48 168 0.0 0.0 0.00 0.09 0.00 52 1017.4
20260507072804 49 168 0.0 0.0 0.00 0.09 0.00 51 1017.5
20260507071805 49 168 0.0 0.0 0.00 0.09 0.00 50 1017.5
20260507071304 49 168 0.0 0.0 0.00 0.09 0.00 50 1017.5
20260507070805 49 168 0.0 0.0 0.00 0.09 0.00 49 1017.5
20260507070304 49 168 0.0 0.0 0.00 0.09 0.00 49 1017.6
20260507065805 49 168 0.0 1.0 0.00 0.09 0.00 49 1017.6
20260507064305 49 168 2.0 3.0 0.00 0.09 0.00 49 1017.3
20260507063804 49 162 2.0 3.0 0.00 0.09 0.00 48 1017.3
20260507063304 49 125 1.0 2.0 0.00 0.09 0.00 47 1017.3
20260507062804 50 125 0.0 2.0 0.00 0.09 0.00 47 1017.3
20260507062306 50 125 0.0 2.0 0.00 0.09 0.00 47 1017.3
20260507061805 50 125 1.0 2.0 0.00 0.09 0.00 46 1017.3
20260507060805 51 94 1.0 5.0 0.00 0.09 0.00 45 1017.3
20260507060304 51 109 1.0 3.0 0.00 0.09 0.00 44 1017.3
20260507055804 51 110 2.0 5.0 0.00 0.09 0.09 44 1017.2
20260507055306 51 108 1.0 5.0 0.00 0.09 0.09 44 1017.2
20260507054804 52 94 1.0 3.0 0.00 0.09 0.09 44 1017.3
20260507054305 52 92 1.0 2.0 0.00 0.09 0.09 44 1017.3
20260507053805 52 92 2.0 5.0 0.00 0.09 0.09 43 1017.1
20260507053305 52 186 0.0 0.0 0.00 0.09 0.09 42 1017.1
20260507052805 52 186 0.0 0.0 0.00 0.09 0.09 42 1017.1
20260507051804 52 186 1.0 3.0 0.00 0.09 0.09 41 1017.2
20260507050304 53 121 1.0 3.0 0.00 0.09 0.09 42 1017.2
20260507045805 53 113 2.0 3.0 0.00 0.09 0.09 41 1017.1
20260507045306 53 130 2.0 3.0 0.00 0.09 0.09 41 1017.1
20260507044805 53 172 0.0 2.0 0.00 0.09 0.09 41 1017.0
20260507044305 53 172 1.0 2.0 0.00 0.09 0.09 40 1017.0
20260507043804 53 192 2.0 3.0 0.00 0.09 0.09 40 1017.0
20260507042804 54 93 5.0 6.0 0.00 0.09 0.09 39 1016.8
20260507042306 54 75 5.0 8.0 0.00 0.09 0.09 39 1016.7
20260507041804 54 72 7.0 8.0 0.00 0.09 0.09 38 1016.7